Weather Roundup
Issued by NWS Corpus Christi, TX

Home | Current Version | Previous Version | Text Only | Print | Product List | Glossary On
Versions: 1 2 3 4 5 6 7 8 9 10 11 12 13 14 15 16 17 18 19 20 21 22 23 24 25 26 27 28 29 30 31 32 33 34 35 36 37 38 39 40 41 42 43 44 45 46 47 48 49 50
000
ASUS44 KCRP 272010
HRRCRP

SOUTH TEXAS REGIONAL WEATHER ROUNDUP
NATIONAL WEATHER SERVICE CORPUS CHRISTI TX
300 PM CDT TUE SEP 27 2016


TXZ229>244-272100-
...CORPUS CHRISTI AREA OBSERVATIONS...

CITY           SKY/WX    TMP DP  RH WIND       PRES   REMARKS
CORPUS CHRISTI CLOUDY    81  72  74 N8        29.99F
NAS CORPUS CHR CLOUDY    80  74  81 N12       29.98F
ROCKPORT       CLOUDY    81  70  69 N8        29.97F
KINGSVILLE NAS CLOUDY    80  73  79 N8        29.98F
ALICE          CLOUDY    81  70  69 N5        29.99F
FALFURRIAS     CLOUDY    77  68  73 NW8       29.99F
$$

...VICTORIA AREA OBSERVATIONS...

CITY           SKY/WX    TMP DP  RH WIND       PRES   REMARKS
VICTORIA       CLOUDY    81  69  67 NE8       29.99F
BEEVILLE       CLOUDY    81  72  74 N5        30.00F
PLEASANTON     MOSUNNY   77  66  68 N6        30.05F
SAN ANTONIO    CLOUDY    75  63  66 N7        30.06F
$$

...LAREDO AREA OBSERVATIONS...

CITY           SKY/WX    TMP DP  RH WIND       PRES   REMARKS
LAREDO         CLOUDY    72  65  78 W12       30.06F
COTULLA        CLOUDY    78  66  66 NW5       30.04F
DEL RIO        CLOUDY    75  57  53 W10       30.08F
MCALLEN        CLOUDY    77  68  73 NW12      30.00F
HEBBRONVILLE   CLOUDY    75  67  76 NW9       30.03F
$$

...OTHER TEXAS OBSERVATIONS...

CITY           SKY/WX    TMP DP  RH WIND       PRES   REMARKS
BROWNSVILLE    CLOUDY    82  73  74 N12       29.96F
HOUSTON        CLOUDY    83  69  62 N7        29.98F
COL. STATION   CLOUDY    81  65  58 N10       30.02F
AUSTIN         CLOUDY    77  63  61 N8        30.04F
WACO           CLOUDY    81  58  45 N12       30.05F
FORT WORTH     CLOUDY    78  46  32 N8        30.05F
WICHITA FALLS  MOSUNNY   79  46  31 VRB5      30.08F
LUBBOCK        MOSUNNY   78  36  21 VRB6      30.15F
EL PASO        MOSUNNY   70  43  37 CALM      30.19F
$$

...MARINE OBSERVATIONS...

STATION/POSITION TIME  SKY/WX   TEMP    WIND        PRES    VSBY  WAVE   SWELL
                                AIR SEA DIR/SP/G                  HT/PER HT/PER
                 (UTC)          (F)     (DEG/KT/KT) (MB)    (MI)  (FT/S) (FT/S)
PORT ARANSAS     1900            78 85  350/ 10/ 12 1015.8F
BUOY 90 E PORT A 1950            77 85  360/  8/ 10 1014.0F         3/ 6   3/ 6
BUOY 45 SE BAFFI 1950            80 85  350/ 12/ 14 1013.8F         4/ 6   3/ 6
BUOY 200 E PT IS 1950            85 87  120/  4/  8 1011.9F         2/ 6   2/ 6
BUOY 15 E GALVES 1950            78 86  360/  6/  8 1014.9F         2/ 6   2/ 6
$$



USA.gov is the U.S. government's official web portal to all federal, state and local government web resources and services.